Flag for Spain Weather past 2 weeks in Almería, Spain

Now
84 °F

Pleasantly warm.


Feels Like: 82 °F
Forecast: 72 / 83 °F
Wind: No wind

Location: Almeria / Aeropuerto

Current Time: Sep 16, 2014 at 12:13:59 PM

Latest Report: Sep 16, 2014 at 11:00 AM


Visibility: N/A

Pressure: 29.83 "Hg

Humidity: 22%

Dew point: 41 °F

Location of AlmeríaLocation

Historic Weather in Almería — Graph

°F

Almería temperature yesterday

Maximum temperature yesterday: 79 °F (at 4:00 PM)
Minimum temperature yesterday: 68 °F (at 8:00 AM)
Average temperature yesterday: 74 °F

Past Weeks' High & Low Weather Summary

 TemperatureHumidityPressure
High88 °F (Sep 2, 6:00 PM)90% (Sep 3, 4:00 AM)30.02 "Hg (Sep 3, 4:00 AM)
Low67 °F (Sep 14, 8:00 AM)22% (Sep 16, 11:00 AM)29.78 "Hg (Sep 3, 8:00 PM)
Average79 °F72%29.91 "Hg
* Reported Sep 1 11:00 AM — Sep 16 11:00 AM, Almería, Weather by CustomWeather, © 2014

Note: Actual official high and low records may vary slightly from our data, if they occured in-between our weather recording intervals... More about our weather records

Advertising

Almería weather history for previous 24 hours

 ConditionsComfort  
Time TempWeatherWind HumidityBarometerVisibility
11:00 AM
Sep 16
84 °FPleasantly warm.No wind22%29.83 "HgN/A
10:00 AM80 °FPleasantly warm.5 mph28%29.83 "HgN/A
9:00 AM72 °FMild.2 mph40%29.82 "HgN/A
8:00 AM69 °FPassing clouds.No wind45%29.82 "Hg31 mi
7:00 AM71 °FMild.6 mph39%29.80 "HgN/A
6:00 AM73 °FMild.9 mph42%29.81 "HgN/A
5:00 AM71 °FPassing clouds.9 mph42%29.81 "Hg25 mi
4:00 AM69 °FMild.6 mph56%29.83 "HgN/A
3:00 AM69 °FMild.10 mph74%29.85 "HgN/A
2:00 AM68 °FMild.2 mph83%29.88 "HgN/A
1:00 AM69 °FMild.No wind85%29.88 "HgN/A
12:00 AM69 °FMild.1 mph83%29.88 "HgN/A
11:00 PM
Sep 15
70 °FMild.2 mph82%29.88 "HgN/A
10:00 PM71 °FMild.2 mph80%29.86 "HgN/A
9:00 PM72 °FMild.6 mph76%29.84 "HgN/A
8:00 PM74 °FPassing clouds.7 mph75%29.84 "Hg25 mi
7:00 PM76 °FMild.5 mph72%29.83 "HgN/A
6:00 PM78 °FWarm.5 mph66%29.83 "HgN/A
5:00 PM77 °FScattered clouds.7 mph69%29.86 "Hg25 mi
4:00 PM79 °FWarm.9 mph63%29.89 "HgN/A
3:00 PM78 °FWarm.10 mph67%29.90 "HgN/A
2:00 PM78 °FPartly sunny.9 mph68%29.93 "Hg19 mi
1:00 PM77 °FMild.8 mph72%29.94 "HgN/A
12:00 PM78 °FWarm.5 mph67%29.94 "HgN/A
Weather by CustomWeather, © 2014

See weather overviewHow to use our weather pages